User: anonymous   Login
Location: Chillicothe
(39.7950°N, 93.5520°W)
Time: 12:23:44
(UTC-06:00)
Language:

BEESAT - Orbit

View from above orbital plane
View from above orbital plane
View from above satellite
View from above satellite

Ground track
Ground track

The orbit data is extracted from the following two-line orbital elements,

1 35933U 09051C   21026.53523347  .00000184  00000-0  52474-4 0  9990
2 35933  98.6046 223.8770 0005961 166.0066 194.1297 14.56545677602453
Epoch (UTC): 26 January 2021 12:50:44
Eccentricity: 0.0005961
inclination: 98.6046°
perigee height: 700 km
apogee height: 708 km
right ascension of ascending node: 223.8770°
argument of perigee: 166.0066°
revolutions per day: 14.56545677
mean anomaly at epoch: 194.1297°
orbit number at epoch: 60245

The dashed part of the orbit path shows where the satellite is in the earth's shadow,  

DLR